Location: Baix
(44.7118°N, 4.7648°E)
Time: 16:41:03
(UTC+00:00)

NOSS 3-1 (C) - Pass Details

Date: 07 August 2020
Orbit: 743 x 1466 km, 63.4° (Epoch: 22 September)

Event Time Altitude Azimuth Distance (km) Brightness Sun altitude
Exits shadow 02:17:32 31° 181° (S) 1,388 3.9 -20.0°
Maximum altitude 02:19:54 54° 120° (ESE) 1,023 3.6 -19.7°
Drops below altitude 10° 02:25:52 10° 44° (NE) 2,693 7.1 -19.1°
Sets 02:28:42 0° 41° (NE) 3,757 8.3 -18.7°
